Location: Arclight Observatory
(36.5667°N, 87.3333°W)
Time: 05:36:01
(UTC-05:00)

Daily predictions for brighter satellites

Satellite Brightness Start Highest point End
(mag) Time Altitude Azimuth Time Altitude Azimuth Time Altitude Azimuth
Cosmos 2285 Rocket 3.9 00:01:05 10° NNW 00:07:24 72° WSW 00:07:34 71° WSW
Terra 4.1 00:10:53 14° W 00:10:53 14° W 00:13:14 10° WNW
Cosmos 2034 Rocket 3.9 00:10:35 10° N 00:16:57 85° W 00:17:05 84° SW
COSMOS 2406 4.0 00:13:24 10° N 00:18:44 40° ENE 00:19:01 40° ENE
ALOS 2 3.7 00:23:03 43° N 00:23:03 43° N 00:26:02 10° N
CZ-4C R/B 2.4 00:22:54 59° NE 00:22:54 59° NE 00:27:37 10° NNE
Cosmos 2263 Rocket 4.0 00:20:31 19° W 00:22:52 25° WNW 00:27:26 10° N
Meteor 2-10 Rocket 4.1 00:22:20 10° N 00:27:04 53° NE 00:27:04 53° NE
CZ-4B R/B 4.4 00:31:59 13° NE 00:31:59 13° NE 00:32:42 10° NNE
Meteor 2-3 Rocket 4.5 00:36:55 44° ENE 00:36:55 44° ENE 00:41:49 10° NNE
Cosmos 2346 Rocket 4.4 00:48:40 84° NW 00:48:40 84° NW 00:54:37 10° N
Cosmos 1634 Rocket 3.9 00:49:59 10° N 00:56:07 76° ENE 00:56:07 76° ENE
Cosmos 1844 Rocket 3.0 00:57:52 60° NW 00:57:52 60° NW 01:03:04 10° NNE
Cosmos 1777 Rocket 4.4 00:58:49 59° NNE 00:58:49 59° NNE 01:03:01 10° NNE
CZ-2C R/B 4.5 01:09:06 31° W 01:09:06 31° W 01:13:29 10° NNW
Cosmos 2142 Rocket 4.4 01:03:36 10° N 01:09:49 87° NE 01:09:49 87° NE
Aureole 3 4.4 01:11:57 71° ENE 01:11:57 71° ENE 01:17:00 10° NNE
H-2A R/B 3.4 01:40:19 10° N 01:43:42 49° N 01:43:42 49° N
Cosmos 2278 Rocket 2.4 01:45:15 63° WNW 01:45:15 63° WNW 01:50:46 10° NNE
Nadezhda 4 Rocket 4.0 01:50:39 68° SE 01:51:14 73° E 01:57:32 10° N
Cosmos 1833 Rocket 3.8 01:51:15 10° N 01:56:32 39° ENE 01:58:54 27° ESE
Okean 1-7 4.3 01:55:26 10° NNW 01:58:10 36° NW 01:58:10 36° NW
Cosmos 1461 4.4 02:03:34 31° NNW 02:03:34 31° NNW 02:06:11 10° NNE
CZ-4B R/B 4.5 02:05:33 10° NW 02:05:33 10° NW 02:05:40 10° NW
Cosmos 2297 3.6 02:04:57 82° SE 02:05:01 82° ESE 02:10:44 10° NNE
SL-16 R/B 4.4 02:02:03 10° ESE 02:06:58 25° ENE 02:11:56 10° NNE
Cosmos 2298 Rocket 4.3 02:07:34 58° ESE 02:07:34 58° ESE 02:12:44 10° NNE
Cosmos 2279 Rocket 4.4 02:02:54 10° NNW 02:08:51 47° W 02:08:54 47° W
CZ-4C R/B 4.4 02:08:02 11° WNW 02:11:14 17° NW 02:14:59 10° N
Meteor 1-10 Rocket 4.3 02:07:46 10° NNW 02:13:31 66° W 02:13:33 66° W
USA 267 4.5 02:09:54 10° ENE 02:15:08 25° ESE 02:15:50 25° SE
Cosmos 1733 Rocket 3.4 02:19:01 63° NNE 02:19:01 63° NNE 02:22:43 10° N
Cosmos 1862 4.2 02:20:10 47° N 02:20:10 47° N 02:23:09 10° N
Cosmos 2150 Rocket 4.1 02:19:04 66° SE 02:19:23 67° ESE 02:24:48 10° NNE
BREEZE-M DEB (TANK) 3.9 02:18:10 57° SSW 02:19:36 73° SE 02:40:37 10° NE
Cosmos 1825 3.9 02:21:09 27° NNW 02:21:09 27° NNW 02:23:16 10° N
Cosmos 2082 Rocket 2.4 02:15:53 10° NNW 02:21:30 67° ENE 02:22:58 48° SE
ADEOS Rocket 3.9 02:15:04 10° NNE 02:22:25 51° E 02:25:04 35° SSE
ATLAS 3B R/B 2.8 02:28:26 53° SSW 02:30:25 81° ESE 02:37:43 10° NNE
Cosmos 44 3.4 02:32:00 59° NW 02:32:00 59° NW 02:36:19 10° NNE
Sich 1 Rocket 4.0 02:38:43 55° ESE 02:39:04 57° E 02:43:34 10° NNE
Cosmos 2195 Rocket 4.4 02:38:14 54° S 02:39:48 84° E 02:46:06 10° N
Cosmos 44 Rocket 4.0 02:41:11 40° WNW 02:41:34 41° NW 02:46:06 10° NNE
Meteor 1-27 Rocket 3.8 02:36:39 10° NNW 02:42:32 63° W 02:43:19 57° SW
Cosmos 1627 Rocket 4.4 02:42:21 54° S 02:43:53 88° E 02:50:03 10° N
AQUA 3.6 02:42:16 10° NNE 02:47:03 86° ESE 02:47:29 74° S
Okean 3 3.8 02:43:02 10° N 02:47:13 57° E 02:47:40 53° ESE
Helios 1A Rocket 4.1 02:44:10 10° N 02:47:25 33° NW 02:47:25 33° NW
Cosmos 1937 Rocket 3.5 02:49:53 57° WSW 02:50:27 61° WNW 02:55:34 10° N
Cosmos 1674 Rocket 3.6 02:46:37 10° NNW 02:50:50 69° WNW 02:50:50 69° WNW
Timation 2 Rocket 4.0 02:45:37 10° NNW 02:51:42 74° ENE 02:56:12 20° SSE
Meteor 2-20 Rocket 4.4 02:51:48 51° SW 02:53:17 69° W 02:59:27 10° N
Resurs 1-4 Rocket 2.4 02:53:02 10° NNE 02:58:18 59° E 03:00:04 39° SSE
Cosmos 1908 Rocket 3.4 02:58:20 76° SW 02:58:34 80° W 03:03:02 10° N
BREEZE-M DEB (TANK) 4.0 02:56:48 35° SSW 03:00:17 53° SE 03:04:19 10° ENE
COBE Rocket 3.8 02:55:42 10° N 03:00:32 89° NW 03:01:30 59° SSW
Geosat 3.9 02:56:02 10° NNE 03:01:05 83° WNW 03:02:09 56° SW
BREEZE-M DEB (TANK) 2.7 03:04:03 44° ENE 03:04:03 44° ENE 03:07:04 10° NE
Cosmos 1898 Rocket 4.5 03:03:10 30° W 03:04:03 32° WNW 03:08:44 10° N
SeaSat 1 2.6 03:05:50 51° WSW 03:05:55 51° WSW 03:10:45 10° NW
Cosmos 990 Rocket 4.3 03:05:25 45° WSW 03:06:19 50° WNW 03:11:21 10° N
Okean 2 Rocket 3.9 03:05:26 34° SE 03:06:52 46° E 03:11:05 10° NNE
IRS-1C 4.2 03:07:05 10° N 03:12:22 64° WNW 03:13:52 45° SW
Cosmos 1378 Rocket 3.4 03:08:24 10° N 03:12:42 75° W 03:13:18 63° SSW
CZ-2D R/B 2.1 03:08:23 10° NNE 03:13:48 82° ESE 03:15:54 39° S
Cosmos 1125 Rocket 4.0 03:11:41 33° SSE 03:13:48 55° ESE 03:18:59 10° NNE
Cosmos 2026 Rocket 4.1 03:13:40 40° SW 03:15:32 56° W 03:21:29 10° N
Delta 2 Rocket 3.9 03:15:57 49° SSW 03:15:57 49° SSW 03:20:21 10° SE
SL-08 R/B 3.7 03:18:18 43° WSW 03:18:44 45° W 03:23:21 10° NNW
ARIANE 5 R/B 2.4 03:14:05 10° NNE 03:19:06 84° ESE 03:20:57 40° S
Cosmos 1553 Rocket 4.1 03:12:54 10° N 03:19:18 81° E 03:23:53 21° S
Cosmos 1782 Rocket 3.5 03:20:22 53° SSW 03:21:22 78° W 03:25:51 10° N
Spot 4 Rocket 4.0 03:16:23 10° N 03:21:32 77° WNW 03:23:21 41° SSW
USA 238 DEB 3.9 03:18:44 33° SW 03:21:55 64° NW 03:28:53 10° NNE
USA 238 3.9 03:18:50 34° SW 03:22:01 64° NW 03:28:59 10° NNE
UNKNOWN OBJECT B 3.4 03:25:12 10° NNE 03:28:49 48° E 03:30:08 32° SSE
IRS-1D 3.5 03:24:07 10° N 03:29:11 70° WNW 03:31:04 38° SSW
Meteor 1-18 Rocket 4.2 03:26:44 10° N 03:32:18 83° E 03:36:39 17° S
CZ-3A R/B 3.9 03:31:03 26° SSW 03:33:17 29° S 03:54:02 10° ESE
Meteor 1-20 Rocket 4.2 03:32:30 30° SSW 03:35:31 83° W 03:41:24 10° N
Cosmos 1943 Rocket 3.2 03:33:06 17° SSE 03:37:00 40° ESE 03:42:13 10° NE
Meteor 2-11 Rocket 4.4 03:30:55 10° N 03:37:03 73° W 03:41:13 22° S
Cosmos 724 4.4 03:34:55 31° SSW 03:38:05 88° WNW 03:44:19 10° NNE
Cosmos 2369 Rocket 2.2 03:36:24 30° SSW 03:39:19 82° ESE 03:44:59 10° NNE
Cosmos 1833 Rocket 3.7 03:35:38 10° NW 03:40:12 26° WSW 03:40:32 26° WSW
Okean O Rocket 4.2 03:37:52 10° ENE 03:40:18 14° E 03:42:43 10° SE
PSLV R/B 3.6 03:41:02 46° SSE 03:41:09 46° SSE 03:44:20 10° ENE
Cosmos 1346 2.6 03:39:14 10° N 03:41:57 87° E 03:41:59 86° ESE
UNK 4.1 03:42:47 34° SSW 03:44:18 46° W 03:48:48 10° NNW
Cosmos 1437 2.9 03:42:31 10° NNW 03:45:39 50° W 03:45:48 49° WSW
Cosmos 405 Rocket 3.0 03:43:10 10° N 03:47:08 66° E 03:50:18 15° SSE
COSMOS 2455 3.4 03:44:20 19° S 03:48:28 54° ESE 03:54:18 10° NE
CZ-3B DEB 3.9 03:36:30 10° NW 03:49:43 77° SW 03:59:58 10° SSE
SL-16 R/B 2.8 03:46:39 23° SSW 03:50:13 47° W 03:56:14 10° NNW
Cosmos 1812 3.2 03:49:02 10° NNW 03:52:40 40° W 03:53:36 34° SW
Cosmos 372 Rocket 3.9 03:49:53 27° SSW 03:52:47 78° WNW 03:58:00 10° NNE
ADEOS II 3.7 03:49:18 10° NE 03:53:56 31° E 03:58:31 10° SSE
Cosmos 1975 Rocket 3.4 03:49:56 10° NNW 03:54:04 45° W 03:55:50 29° SW
Cosmos 2151 Rocket 3.7 03:51:48 21° S 03:54:50 80° E 03:59:22 10° N
Cosmos 2263 4.3 03:52:13 22° SSW 03:56:06 80° ESE 04:01:55 10° NNE
USA 267 3.3 03:51:55 10° NE 03:58:28 76° NW 04:03:11 20° SW
USA 161 2.7 03:59:06 12° SE 04:00:59 33° ENE 04:03:17 10° N
NOSS 3-2 (C) 3.4 03:57:46 23° SSW 04:01:39 85° WNW 04:08:11 10° NNE
Cosmos 1536 4.2 03:58:39 10° SSE 04:02:18 37° E 04:05:59 10° NNE
NOSS 3-2 (A) 3.6 03:58:42 23° SW 04:02:30 64° NW 04:08:57 10° NNE
Cosmos 2082 Rocket 3.9 04:02:08 10° WNW 04:04:46 14° W 04:04:46 14° W
ADEOS Rocket 4.5 04:01:02 10° N 04:07:24 30° WNW 04:12:01 16° WSW
Cosmos 158 Rocket 3.8 04:03:44 10° NNW 04:08:50 79° WSW 04:13:46 10° SSE
SL-24 R/B 4.2 04:05:20 10° N 04:09:34 74° WNW 04:13:18 17° SSW
Cosmos 1602 3.7 04:08:19 21° SSW 04:10:53 72° W 04:14:49 10° N
Cosmos 2344 3.8 04:05:50 19° SW 04:11:31 66° NW 04:19:53 10° NNE
ASTRO E2 3.5 04:12:02 23° SW 04:13:43 34° S 04:17:22 10° ESE
MOS 1-B 4.4 04:10:45 10° NNE 04:16:34 80° ESE 04:22:20 10° S
Cosmos 1536 Rocket 3.6 04:12:17 10° N 04:16:48 90° ESE 04:21:15 10° S
Cosmos 2315 Rocket 4.1 04:12:11 10° N 04:18:31 85° E 04:24:46 10° S
Cosmos 2266 Rocket 4.3 04:13:53 16° SSW 04:18:54 53° W 04:25:10 10° N
CENTAUR R/B 3.4 04:14:39 10° S 04:20:07 42° ESE 04:26:12 10° NE
MOZ.5/SAFIR/RUBIN 5/SL-8 4.1 04:17:22 12° S 04:21:38 45° W 04:26:11 10° NNW
ATLAS 3B R/B 4.4 04:16:11 10° W 04:21:54 23° NW 04:27:28 10° N
BREEZE-M DEB (TANK) 2.3 04:17:56 10° WNW 04:22:13 79° SW 04:24:54 10° SE
PSLV R/B 4.2 04:20:26 10° NNE 04:24:06 57° E 04:27:44 10° S
Cosmos 1048 Rocket 4.3 04:23:52 10° NNW 04:29:03 50° WSW 04:34:11 10° S
Gbstr 26 Del rocket 2.8 04:27:41 17° WSW 04:30:28 64° NW 04:34:14 10° NE
Cosmos 1633 4.0 04:29:00 16° WSW 04:30:49 23° WNW 04:33:46 10° NNW
PSLV R/B 4.3 04:28:57 10° NNE 04:33:06 52° E 04:37:16 10° S
Resurs 1-4 Rocket 3.9 04:34:25 10° NNW 04:37:35 16° WNW 04:40:45 10° W
CZ-4B R/B 3.8 04:36:32 10° NNE 04:42:02 61° ESE 04:47:36 10° S
Okean 1 Rocket 3.1 04:39:08 10° S 04:43:37 80° W 04:48:05 10° N
Meteor 2-4 Rocket 3.7 04:39:35 10° N 04:45:14 82° W 04:50:42 10° S
Landsat 4 3.8 04:43:47 10° SSE 04:47:35 86° ENE 04:51:25 10° NNW
CZ-4B R/B 2.6 04:45:44 10° N 04:49:25 78° WNW 04:53:00 10° SSW
Cosmos 2251 Rocket 4.0 04:45:01 10° NNW 04:50:18 67° ENE 04:55:30 10° SSE
Meteor 1-13 Rocket 4.5 04:46:00 10° NNW 04:51:16 47° W 04:56:34 10° SSW
Meteor 1-11 Rocket 4.2 04:47:31 10° SSW 04:52:57 46° WNW 04:58:32 10° N
CZ-2D R/B 4.2 04:51:09 10° NW 04:53:08 12° WNW 04:55:07 10° W
Cosmos 1441 Rocket 4.3 04:50:53 10° NNW 04:54:21 28° W 04:57:46 10° SSW
Meteor 1-23 Rocket 4.4 04:49:41 10° N 04:55:32 90° ESE 05:01:17 10° S
Meteor 1-5 Rocket 4.4 04:53:51 10° SSW 04:59:47 74° W 05:05:46 10° N
CZ-2C R/B 4.5 04:59:44 10° SSE 05:04:25 62° ENE 05:09:07 10° N
Okean-O 4.5 05:01:31 10° NE 05:05:29 32° E 05:09:26 10° SSE
H-2A R/B 2.9 04:55:08 10° WSW 05:12:32 59° S 05:16:17 10° ESE
